KO6TH-15 Weather Reports


time (UTC)temp
C
wind
direction
speed
KPH
gust
KPH
rain 1hr
cm
rain 24hr
cm
rain mn
cm
humidity
%
barometer
mb
20260507001519 22 0 3.2 0.0 0.00 0.00 0.00 67
20260507000450 23 0 4.8 0.0 0.00 0.00 0.00 64
20260506235419 23 0 6.4 0.0 0.00 0.00 0.00 63
20260506234349 24 0 4.8 0.0 0.00 0.00 0.00 62
20260506233319 23 0 4.8 0.0 0.00 0.00 0.00 63
20260506232319 23 0 4.8 0.0 0.00 0.00 0.00 62
20260506231249 23 0 3.2 0.0 0.00 0.00 0.00 63
20260506230219 22 0 4.8 0.0 0.00 0.00 0.00 66
20260506225149 23 0 3.2 0.0 0.00 0.00 0.00 62
20260506224119 21 0 6.4 0.0 0.00 0.00 0.00 70
20260506223049 21 0 3.2 0.0 0.00 0.00 0.00 69
20260506222019 21 0 3.2 0.0 0.00 0.00 0.00 69
20260506220949 20 0 3.2 0.0 0.00 0.00 0.00 71
20260506215919 20 0 1.6 0.0 0.00 0.00 0.00 73
20260506214850 19 0 3.2 0.0 0.00 0.00 0.00 74
20260506213849 19 0 3.2 0.0 0.00 0.00 0.00 75
20260506212849 18 0 1.6 0.0 0.00 0.00 0.00 76
20260506211819 19 0 0.0 0.0 0.00 0.00 0.00 75
20260506210819 18 0 4.8 0.0 0.00 0.00 0.00 77
20260506205749 17 0 4.8 0.0 0.00 0.00 0.00 79
20260506204719 18 0 6.4 0.0 0.00 0.00 0.00 78
20260506203719 18 0 3.2 0.0 0.00 0.00 0.00 78
20260506202649 17 0 4.8 0.0 0.00 0.00 0.00 79
20260506201619 17 0 3.2 0.0 0.00 0.00 0.00 79
20260506200549 17 0 4.8 0.0 0.00 0.00 0.00 81
20260506195519 17 0 4.8 0.0 0.00 0.00 0.00 82
20260506194449 17 0 3.2 0.0 0.00 0.00 0.00 83
20260506193449 17 0 1.6 0.0 0.00 0.00 0.00 83
20260506192419 17 0 6.4 0.0 0.00 0.00 0.00 83
20260506191419 16 0 1.6 0.0 0.00 0.00 0.00 84
20260506190349 17 0 3.2 0.0 0.00 0.00 0.00 84
20260506185319 16 0 1.6 0.0 0.00 0.00 0.00 86
20260506184249 16 0 4.8 0.0 0.00 0.00 0.00 85
20260506183219 16 0 3.2 0.0 0.00 0.00 0.00 85
20260506182149 16 0 6.4 0.0 0.00 0.00 0.00 85
20260506181150 17 0 3.2 0.0 0.00 0.00 0.00 81
20260506180149 17 0 3.2 0.0 0.00 0.00 0.00 80
20260506175119 18 0 1.6 0.0 0.00 0.00 0.00 77
20260506174049 18 0 3.2 0.0 0.00 0.00 0.00 79
20260506173049 17 0 1.6 0.0 0.00 0.00 0.00 82
20260506172019 17 0 3.2 0.0 0.00 0.00 0.00 82
20260506170949 17 0 3.2 0.0 0.00 0.00 0.00 82
20260506165919 16 0 1.6 0.0 0.00 0.00 0.00 83
20260506164849 16 0 3.2 0.0 0.00 0.00 0.00 84
20260506163819 16 0 0.0 0.0 0.00 0.00 0.00 85
20260506162749 15 0 1.6 0.0 0.00 0.00 0.00 88
20260506161719 15 0 0.0 0.0 0.00 0.00 0.00 88
20260506160649 15 0 0.0 0.0 0.00 0.00 0.00 88
20260506155649 15 0 0.0 0.0 0.00 0.00 0.00 90
20260506154619 15 0 0.0 0.0 0.00 0.00 0.00 91
20260506153549 14 0 0.0 0.0 0.00 0.00 0.00 93
20260506152549 13 0 0.0 0.0 0.00 0.00 0.00 96
20260506151549 13 0 0.0 0.0 0.00 10.64 0.00 98
20260506150519 13 0 0.0 0.0 0.00 10.64 0.00 99
20260506145519 13 0 0.0 0.0 0.00 10.64 0.00 99
20260506144519 13 0 0.0 0.0 0.00 10.64 0.00 99
20260506143449 13 0 0.0 0.0 0.00 10.64 0.00 99
20260506142420 12 0 0.0 0.0 0.00 10.64 0.00 99
20260506141349 12 0 0.0 0.0 0.00 10.64 0.00 99
20260506140349 12 0 0.0 0.0 0.00 10.64 0.00 99
20260506135349 12 0 0.0 0.0 0.00 10.64 0.00 99
20260506134349 12 0 0.0 0.0 0.00 10.64 0.00 99
20260506133319 12 0 0.0 0.0 0.00 10.64 0.00 99
20260506132249 12 0 0.0 0.0 0.00 10.64 0.00 99
20260506131249 12 0 0.0 0.0 0.00 10.64 0.00 99
20260506130219 12 0 0.0 0.0 0.00 10.64 0.00 99
20260506125219 12 0 0.0 0.0 0.00 10.64 0.00 99
20260506124219 12 0 0.0 0.0 0.00 10.64 0.00 99
20260506123149 12 0 0.0 0.0 0.00 10.64 0.00 99
20260506122149 12 0 0.0 0.0 0.00 10.64 0.00 99
20260506121123 12 0 0.0 0.0 0.00 10.64 0.00 99
20260506120050 12 0 0.0 0.0 0.00 10.64 0.00 99
20260506115020 12 0 0.0 0.0 0.00 10.64 0.00 99
20260506113949 12 0 0.0 0.0 0.00 10.64 0.00 99
20260506112949 12 0 0.0 0.0 0.00 10.64 0.00 99
20260506111920 12 0 0.0 0.0 0.00 10.64 0.00 99
20260506110850 12 0 0.0 0.0 0.00 10.64 0.00 99
20260506105850 12 0 0.0 0.0 0.00 10.64 0.00 99
20260506104820 12 0 0.0 0.0 0.00 10.64 0.00 99
20260506103750 12 0 0.0 0.0 0.00 10.64 0.00 99
20260506102720 12 0 0.0 0.0 0.00 10.64 0.00 99
20260506101650 12 0 0.0 0.0 0.00 10.64 0.00 99
20260506100650 12 0 0.0 0.0 0.00 10.64 0.00 99
20260506095650 12 0 0.0 0.0 0.00 10.64 0.00 99
20260506094620 12 0 0.0 0.0 0.00 10.64 0.00 99
20260506093550 12 0 0.0 0.0 0.00 10.64 0.00 99
20260506092550 12 0 0.0 0.0 0.00 10.64 0.00 99
20260506091550 12 0 0.0 0.0 0.00 10.64 0.00 99
20260506090520 12 0 0.0 0.0 0.00 10.64 0.00 99
20260506085450 12 0 0.0 0.0 0.00 10.64 0.00 99
20260506084420 12 0 0.0 0.0 0.00 10.64 0.00 99
20260506083420 12 0 0.0 0.0 0.00 10.64 0.00 99
20260506082350 12 0 0.0 0.0 0.00 10.64 0.00 99
20260506081350 12 0 0.0 0.0 0.00 10.64 0.00 98
20260506080350 12 0 0.0 0.0 0.00 10.64 0.00 98
20260506073250 12 0 0.0 0.0 0.00 10.64 0.00 98
20260506072250 12 0 0.0 0.0 0.00 10.64 0.00 99
20260506071220 12 0 0.0 0.0 0.00 10.69 0.00 98
20260506070150 12 0 0.0 0.0 0.00 10.72 0.00 98
20260506062049 13 0 0.0 0.0 0.00 10.77 10.72 98
20260506061019 13 0 0.0 0.0 0.00 10.79 10.72 97
20260506050820 13 0 0.0 0.0 0.00 10.95 10.72 95
20260506044719 13 0 0.0 0.0 0.00 11.07 10.72 93
20260506043719 13 0 0.0 0.0 0.00 11.15 10.72 91
20260506042650 13 0 0.0 0.0 0.00 11.18 10.72 90
20260506041620 13 0 0.0 0.0 0.00 11.18 10.72 90
20260506040549 13 0 0.0 0.0 0.00 11.25 10.72 89
20260506035519 13 0 0.0 0.0 0.00 11.56 10.72 89
20260506034450 13 0 0.0 0.0 0.00 11.71 10.72 89
20260506033419 13 0 0.0 0.0 0.00 11.79 10.72 88
20260506032350 13 0 0.0 0.0 0.00 11.89 10.72 87
20260506031349 14 0 0.0 0.0 0.00 11.99 10.72 86
20260506030319 14 0 0.0 0.0 0.00 12.09 10.72 85
20260506025250 14 0 0.0 0.0 0.00 12.24 10.72 85
20260506024220 15 0 3.2 0.0 0.00 12.32 10.72 84
20260506023149 15 0 3.2 0.0 0.00 12.40 10.72 84
20260506022120 15 0 0.0 0.0 0.00 12.47 10.72 83
20260506021049 15 0 3.2 0.0 0.00 12.50 10.72 83
20260506020019 15 0 1.6 0.0 0.00 12.55 10.72 84
20260506014950 15 0 1.6 0.0 0.00 12.62 10.72 82
20260506013919 16 0 1.6 0.0 0.00 12.65 10.72 81
20260506012920 16 0 3.2 0.0 0.00 12.65 10.72 80
20260506011850 16 0 1.6 0.0 0.00 12.73 10.72 81
20260506010820 16 0 1.6 0.0 0.00 12.73 10.72 80
20260506005820 16 0 3.2 0.0 0.00 12.73 10.72 80
20260506004750 16 0 4.8 0.0 0.00 12.80 10.72 78
20260506003719 16 0 1.6 0.0 0.00 12.85 10.72 76
20260506002650 16 0 0.0 0.0 0.00 12.88 10.72 76